Location: Saluda
(35.2377°N, 82.3468°W)
Time: 20:40:43
(UTC+00:00)

Vanguard 3 - Pass Details

Date: 14 October 2022
Orbit: 509 x 3255 km, 33.3° (Epoch: 01 December)

Event Time Altitude Azimuth Distance (km) Brightness Sun altitude
Rises 15:11:03 0° 271° (W) 2,643 9.5 37.5°
Reaches altitude 10° 15:13:14 10° 258° (WSW) 1,847 8.9 37.8°
Maximum altitude 15:16:44 27° 198° (SSW) 1,263 8.9 38.2°
Drops below altitude 10° 15:21:28 10° 140° (SE) 2,552 11.0 38.8°
Sets 15:25:04 0° 130° (SE) 3,916 11.5 39.3°
